Tracking 22879 objects as of 20-Apr-2021
HD Live streaming from Space Station
objects crossing your sky now

ONEWEB-0095

Track ONEWEB-0095 now!
10-day predictions
ONEWEB-0095 is classified as:


NORAD ID: 45436
Int'l Code: 2020-020N
Perigee: 1,222.4 km
Apogee: 1,225.3 km
Inclination: 87.9 °
Period: 109.8 minutes
Semi major axis: 7594 km
RCS: Unknown
Launch date: March 21, 2020
Source: United Kingdom (UK)
Launch site: TYURATAM MISSILE AND SPACE COMPLEX (TTMTR)
aabbcc
Your satellite tracking list
Your tracking list is empty




NASA's NSSDC Master Catalog

Two Line Element Set (TLE):
1 45436U 20020N   21110.50108066 -.00000378  00000-0 -10979-2 0  9995
2 45436  87.8945  35.5603 0001926  73.7495 286.3845 13.11661775 55789
Source of the keplerian elements: AFSPC